Bryce Canyon, UT

10:06 PM MST on December 09, 2019 (GMT -0700)
Bryce Canyon

Weather History for KBCE - August, 2019

Change the Weather History Date:

Sunday, August 18, 2019

  Actual Average Record
Temperature  
Mean Temperature 58 °F -  
Max Temperature 81 °F 76 °F 87 °F (2002)
Min Temperature 37 °F 44 °F 32 °F (1960)
Degree Days  
Heating Degree Days 6    
Growing Degree Days 8 (Base 50)    
Moisture  
Dew Point 26 °F    
Average Humidity 33    
Maximum Humidity 65    
Minimum Humidity 10    
Precipitation  
Precipitation 0.00 in - - ()
Sea Level Pressure  
Sea Level Pressure 29.92 in    
Wind  
Wind Speed 5 mph (WSW)    
Max Wind Speed 15 mph    
Max Gust Speed 24 mph    
Visibility 10 miles    
Events      
Averages and records for this station are not official NWS values.
T = Trace of Precipitation, MM = Missing Value Source: NWS Daily Summary

Daily Weather History Graph

Daily Weather History Graph

Search for Another Location

Airport or City:

Astronomy

Aug. 18, 2019 Rise Set
Actual Time 6:46 AM MDT 8:17 PM MDT
Civil Twilight 6:18 AM MDT 8:45 PM MDT
Nautical Twilight 5:45 AM MDT 9:18 PM MDT
Astronomical Twilight 5:10 AM MDT 9:53 PM MDT
Moon 10:17 PM MDT (8/18) 9:32 AM MDT (8/18)
Length of Visible Light 14h 26m
Length of Day
13h 30m
Waning Gibbous, 91% of the Moon is Illuminated
Aug 18
Waning Gibbous
Aug 23
Last Quarter
Aug 30
New
Sep 5
First Quarter
Sep 13
Full

Hourly Weather History & Observations

Time (MDT) Temp. Windchill Dew Point Humidity Pressure Visibility Wind Dir Wind Speed Gust Speed Precip Events Conditions
12:53 AM 45.0 °F - 24.1 °F 44% 29.86 in 10.0 mi Calm Calm - N/A   Clear
1:53 AM 46.0 °F 44.8 °F 24.1 °F 42% 29.88 in 10.0 mi North 3.5 mph - N/A   Clear
2:53 AM 45.0 °F 42.6 °F 23.0 °F 42% 29.86 in 10.0 mi NNE 4.6 mph - N/A   Clear
3:53 AM 42.1 °F - 26.1 °F 53% 29.89 in 10.0 mi Calm Calm - N/A   Clear
4:53 AM 37.9 °F 35.5 °F 27.0 °F 65% 29.91 in 10.0 mi SW 3.5 mph - N/A   Clear
5:53 AM 37.9 °F - 26.1 °F 62% 29.92 in 10.0 mi Calm Calm - N/A   Clear
6:53 AM 37.9 °F 33.5 °F 26.1 °F 62% 29.94 in 10.0 mi WSW 5.8 mph - N/A   Clear
7:53 AM 46.9 °F - 28.9 °F 50% 29.95 in 10.0 mi Calm Calm - N/A   Clear
8:53 AM 62.1 °F - 28.0 °F 28% 29.94 in 10.0 mi North 3.5 mph - N/A   Clear
9:53 AM 72.0 °F - 28.0 °F 20% 29.89 in 10.0 mi WSW 12.7 mph - N/A   Clear
10:53 AM 73.9 °F - 27.0 °F 18% 29.90 in 10.0 mi West 9.2 mph 16.1 mph N/A   Clear
11:53 AM 77.0 °F - 26.1 °F 15% 29.93 in 10.0 mi SSW 6.9 mph - N/A   Clear
12:53 PM 80.1 °F - 18.0 °F 10% 29.94 in 10.0 mi SSW 9.2 mph - N/A   Clear
1:53 PM 79.0 °F - 18.0 °F 10% 29.94 in 10.0 mi Variable 6.9 mph - N/A   Clear
2:53 PM 79.0 °F - 19.9 °F 11% 29.95 in 10.0 mi WSW 10.4 mph 24.2 mph N/A   Clear
3:53 PM 80.1 °F - 24.1 °F 13% 29.93 in 10.0 mi SSW 6.9 mph - N/A   Clear
4:53 PM 80.1 °F - 26.1 °F 14% 29.93 in 10.0 mi WSW 15.0 mph - N/A   Clear
5:53 PM 79.0 °F - 28.9 °F 16% 29.93 in 10.0 mi WSW 15.0 mph - N/A   Clear
6:53 PM 77.0 °F - 24.1 °F 14% 29.94 in 10.0 mi WSW 10.4 mph - N/A   Clear
7:53 PM 66.9 °F - 30.9 °F 26% 29.95 in 10.0 mi SW 6.9 mph - N/A   Clear
8:53 PM 57.9 °F - 30.9 °F 36% 29.94 in 10.0 mi WSW 5.8 mph - N/A   Clear
9:53 PM 55.9 °F - 30.9 °F 39% 29.92 in 10.0 mi WSW 8.1 mph - N/A   Clear
10:53 PM 51.1 °F - 30.0 °F 44% 29.94 in 10.0 mi West 6.9 mph - N/A   Clear
11:53 PM 48.0 °F - 28.9 °F 48% 29.95 in 9.0 mi WSW 4.6 mph - N/A   Clear